Погода в Газли

Узбекистан     40°07′48″N   63°27′29″E
темп.,
°C
ветер,
м/с
пор.,
м/с
влажн.,
%
обл.,
%
осадки,
мм/ч
давл.,
гПа
погр.,
м
20 января, ср
ср2023:00+6зсз45681 0.0 102053
02:00+3сз12890 0.0 102122
05:00+3в238850 0.0 102122
08:00+4в4581100 0.0 102143
11:00+11в5646100 0.0 1020280
14:00+16юв683079 0.0 1017827
17:00+16ююв443839 0.0 101570
20:00+11юв34510 0.0 101423
21 января, чт
чт2123:00+9юв45630 0.0 101329
02:00+8ююв34690 0.0 101122
05:00+7юв45700 0.0 100923
08:00+6юв45750 0.0 100831
11:00+12ю454517 0.0 1007385
14:00+14сз3234100 0.0 1005637
17:00+9ссз111456100 0.0 1007551
20:00+4ссз121566100 0.1 1012774
22 января, пт
пт2223:00−2ссз121694100 3.0 1017776
02:00−3сз101579100 2.2 1025782
05:00−3зсз5981100 2.2 1030254
08:00−5з61085100 0.1 1034463
11:00−6зсз697179 0.1 1037564
14:00−4з57600 0.0 1038773
17:00−5зюз34720 0.0 103935
20:00−7ююз447767 0.0 104033
23 января, сб
сб2323:00−6ююз468483 0.0 104091
02:00−6ююз558997 0.0 104086
05:00−6ююз569080 0.0 103970
08:00−6ю56866 0.0 104078
11:00−2ююз7107840 0.0 1040404
14:000ююз7107440 0.0 1039593
17:00−1ююз458028 0.0 103996
20:00−3ю34770 0.0 104021
24 января, вс
вс2423:00−4ююв33720 0.0 104021
02:00−4вюв33680 0.0 103921
05:00−5в45680 0.0 103727
08:00−6всв56710 0.0 103748
11:00−2всв69660 0.0 1037236
14:00+1всв69630 0.0 1034338
17:00+1св611641 0.0 1032273
20:00−2всв7147547 0.0 1032242